Northfield, Minnesota, United States (55057)
Lat: 44.46N, Lon: 93.16W
Wx Zone: MNZ077
Local Info
Past Weather Observations for Today

NOTE: This archive is for the closest National Weather Service station to Northfield. Information may differ from the station used for current weather conditions.

Click here for Long-term Archive

Time Weather Temperature Dewpoint Humidity Pressure Winds Precip Visibility
15:30
Overcast
82°F / 28°C 63°F / 17°C 51% 29.68 in
(1005 mb)
SW 13.8 mph
(SW 22 kph)
- 10SM
15:10
Mostly Cloudy
82°F / 28°C 63°F / 17°C 51% 29.68 in
(1005 mb)
SW 21.9 mph
(SW 35 kph)
- 10SM
14:51
Partly Cloudy
82°F / 28°C 63°F / 17°C 51% 29.68 in
(1005 mb)
SSE 12.7 mph
(SSE 20 kph)
- 10SM
14:30
Clear
82°F / 28°C 61°F / 16°C 48% 29.68 in
(1005 mb)
SSE 13.8 mph
(SSE 22 kph)
- 10SM
14:10
Clear
82°F / 28°C 61°F / 16°C 48% 29.68 in
(1005 mb)
S 19.6 mph
(S 32 kph)
- 10SM
13:51
Clear
79°F / 26°C 61°F / 16°C 54% 29.68 in
(1005 mb)
S 17.3 mph
(S 28 kph)
- 10SM
13:30
Clear
79°F / 26°C 61°F / 16°C 54% 29.71 in
(1006 mb)
S 19.6 mph
(S 32 kph)
- 10SM
13:11
Clear
79°F / 26°C 61°F / 16°C 54% 29.71 in
(1006 mb)
S 16.1 mph
(S 26 kph)
- 10SM
12:51
Clear
79°F / 26°C 59°F / 15°C 51% 29.71 in
(1006 mb)
S 16.1 mph
(S 26 kph)
- 10SM
12:30
Clear
77°F / 25°C 59°F / 15°C 54% 29.74 in
(1007 mb)
S 16.1 mph
(S 26 kph)
- 10SM
12:11
Clear
77°F / 25°C 59°F / 15°C 54% 29.74 in
(1007 mb)
S 17.3 mph
(S 28 kph)
- 10SM
11:50
Clear
75°F / 24°C 57°F / 14°C 54% 29.74 in
(1007 mb)
S 16.1 mph
(S 26 kph)
- 10SM
11:31
Clear
75°F / 24°C 59°F / 15°C 57% 29.74 in
(1007 mb)
S 18.4 mph
(S 30 kph)
- 10SM
11:11
Clear
73°F / 23°C 59°F / 15°C 61% 29.77 in
(1008 mb)
S 19.6 mph
(S 32 kph)
- 10SM
10:50
Clear
73°F / 23°C 57°F / 14°C 57% 29.8 in
(1009 mb)
S 21.9 mph
(S 35 kph)
- 10SM
10:31
Clear
72°F / 22°C 57°F / 14°C 61% 29.8 in
(1009 mb)
S 17.3 mph
(S 28 kph)
- 10SM
10:10
Partly Cloudy
70°F / 21°C 57°F / 14°C 64% 29.83 in
(1010 mb)
S 17.3 mph
(S 28 kph)
- 10SM
09:51
Partly Cloudy
70°F / 21°C 57°F / 14°C 64% 29.83 in
(1010 mb)
S 17.3 mph
(S 28 kph)
- 10SM
09:31
Overcast
66°F / 19°C 55°F / 13°C 68% 29.83 in
(1010 mb)
S 18.4 mph
(S 30 kph)
- 10SM
09:10
Overcast
66°F / 19°C 55°F / 13°C 68% 29.86 in
(1011 mb)
S 17.3 mph
(S 28 kph)
- 10SM
08:51
Overcast
64°F / 18°C 55°F / 13°C 73% 29.89 in
(1012 mb)
S 9.2 mph
(S 15 kph)
- 10SM
08:30
Mostly Cloudy
63°F / 17°C 54°F / 12°C 73% 29.89 in
(1012 mb)
S 6.9 mph
(S 11 kph)
- 10SM
08:10
Partly Cloudy
61°F / 16°C 52°F / 11°C 72% 29.92 in
(1013 mb)
S 9.2 mph
(S 15 kph)
- 10SM
07:51
Mostly Cloudy
61°F / 16°C 52°F / 11°C 72% 29.92 in
(1013 mb)
S 9.2 mph
(S 15 kph)
- 10SM
07:30
Partly Cloudy
59°F / 15°C 50°F / 10°C 72% 29.92 in
(1013 mb)
S 10.4 mph
(S 17 kph)
- 10SM
07:11
Clear
59°F / 15°C 50°F / 10°C 72% 29.92 in
(1013 mb)
S 10.4 mph
(S 17 kph)
- 10SM
06:50
Clear
59°F / 15°C 50°F / 10°C 72% 29.92 in
(1013 mb)
S 12.7 mph
(S 20 kph)
- 10SM
06:31
Clear
59°F / 15°C 50°F / 10°C 72% 29.92 in
(1013 mb)
S 12.7 mph
(S 20 kph)
- 10SM
06:11
Clear
57°F / 14°C 48°F / 9°C 72% 29.95 in
(1014 mb)
S 11.5 mph
(S 19 kph)
- 10SM
05:50
Clear
59°F / 15°C 50°F / 10°C 72% 29.95 in
(1014 mb)
S 10.4 mph
(S 17 kph)
- 10SM
05:31
Partly Cloudy
59°F / 15°C 50°F / 10°C 72% 29.95 in
(1014 mb)
S 11.5 mph
(S 19 kph)
- 10SM
05:11
Mostly Cloudy
59°F / 15°C 50°F / 10°C 72% 29.98 in
(1015 mb)
S 8.1 mph
(S 13 kph)
- 10SM
04:50
Mostly Cloudy
59°F / 15°C 50°F / 10°C 72% 29.98 in
(1015 mb)
S 11.5 mph
(S 19 kph)
- 10SM
04:30
Clear
59°F / 15°C 50°F / 10°C 72% 29.98 in
(1015 mb)
S 9.2 mph
(S 15 kph)
- 10SM
04:11
Clear
59°F / 15°C 50°F / 10°C 72% 29.95 in
(1014 mb)
S 11.5 mph
(S 19 kph)
- 10SM
03:50
Clear
59°F / 15°C 50°F / 10°C 72% 29.95 in
(1014 mb)
S 10.4 mph
(S 17 kph)
- 10SM
03:31
Partly Cloudy
57°F / 14°C 52°F / 11°C 82% 29.95 in
(1014 mb)
S 11.5 mph
(S 19 kph)
- 10SM
03:10
Clear
57°F / 14°C 52°F / 11°C 82% 29.98 in
(1015 mb)
S 10.4 mph
(S 17 kph)
- 10SM
02:50
Partly Cloudy
57°F / 14°C 52°F / 11°C 82% 29.98 in
(1015 mb)
S 9.2 mph
(S 15 kph)
- 10SM
02:31
Partly Cloudy
57°F / 14°C 52°F / 11°C 82% 29.98 in
(1015 mb)
SSE 9.2 mph
(SSE 15 kph)
- 10SM
02:10
Partly Cloudy
59°F / 15°C 52°F / 11°C 77% 29.98 in
(1015 mb)
S 9.2 mph
(S 15 kph)
- 10SM
01:51
Partly Cloudy
59°F / 15°C 52°F / 11°C 77% 29.98 in
(1015 mb)
S 12.7 mph
(S 20 kph)
- 10SM
01:30
Partly Cloudy
59°F / 15°C 52°F / 11°C 77% 30.01 in
(1016 mb)
S 10.4 mph
(S 17 kph)
- 10SM
01:11
Clear
59°F / 15°C 52°F / 11°C 77% 30.01 in
(1016 mb)
SSE 9.2 mph
(SSE 15 kph)
- 10SM
00:51
Clear
59°F / 15°C 52°F / 11°C 77% 30.01 in
(1016 mb)
SSE 9.2 mph
(SSE 15 kph)
- 10SM
00:30
Clear
59°F / 15°C 54°F / 12°C 82% 30.01 in
(1016 mb)
S 9.2 mph
(S 15 kph)
- 10SM
00:11
Clear
59°F / 15°C 54°F / 12°C 82% 30.01 in
(1016 mb)
S 9.2 mph
(S 15 kph)
- 10SM
Time Weather Temperature Dewpoint Humidity Pressure Winds Precip Visibility


Weather for websites

WeatherForYou.com, LLC is not responsible for any damages or problems caused by this service. Current weather conditions are obtained from the closest station including government and personal stations which may have varying degrees of accuracy. Weather forecasts are derived from the NOAA NDFD. Like all things, this site belongs to Jesus Christ... He just trusts me to maintain it. If you have any questions or comments email webmaster@weatherforyou.com

Copyright © 2014, WeatherForYou.com LLC. All rights reserved.